ACA836 CYYZ-EDDM

Flight info

Callsign ACA836
Flight time N/A
Altitude 33000
Route BOMET8 TALEB Q905 BOMET DCT MIVOK DCT KANIK DCT TAKOL Q941 ESTEL DCT CEFOU N769B KODIK/M084F350 DCT 5530N05000W 5630N04000W 5630N03000W 5530N02000W DCT VENER DCT KOKIB/N0481F350 DCT MORAG/N0480F370 DCT NUCHU L607 KONAN DCT KOK DCT MATUG DCT MOVUM T109 HAREM/N0480F350 T104 ELMOX/N0477F270 T104 ROKIL ROKIL1A
Aircraft B77W/H-SDE1E2E3FGHIJ2J3J4J5M1RWXY/LB1D1

Departure

Time N/A
Airport Toronto Pearson International Airport (CYYZ)

Arrival

Time 2026-04-30 20:55
Airport Munich Airport (EDDM)
Time Latitude Longitude Altitude Speed Heading
2026-04-30 20:11 50.57639 5.56037 37281 ft 466 kts 106°
2026-04-30 20:11 50.55752 5.65798 37290 ft 466 kts 106°
2026-04-30 20:12 50.52918 5.80372 37295 ft 466 kts 106°
2026-04-30 20:13 50.51011 5.90113 37295 ft 466 kts 107°
2026-04-30 20:13 50.49097 5.99839 37301 ft 466 kts 107°
2026-04-30 20:14 50.47216 6.09354 37302 ft 466 kts 106°
2026-04-30 20:14 50.45280 6.19096 37301 ft 466 kts 106°
2026-04-30 20:15 50.43355 6.28746 37302 ft 466 kts 106°
2026-04-30 20:15 50.41406 6.38454 37302 ft 466 kts 107°
2026-04-30 20:16 50.39416 6.48139 37316 ft 466 kts 107°
2026-04-30 20:16 50.37405 6.57808 37303 ft 467 kts 107°
2026-04-30 20:17 50.35385 6.67497 37326 ft 467 kts 107°
2026-04-30 20:17 50.33376 6.77106 37319 ft 467 kts 107°
2026-04-30 20:18 50.31344 6.86785 37327 ft 468 kts 107°
2026-04-30 20:18 50.29305 6.96454 37321 ft 468 kts 107°
2026-04-30 20:19 50.27303 7.05898 37322 ft 468 kts 107°
2026-04-30 20:19 50.25257 7.15503 37322 ft 468 kts 107°
2026-04-30 20:20 50.23192 7.25152 37322 ft 468 kts 107°
2026-04-30 20:20 50.21116 7.34807 37329 ft 468 kts 107°
2026-04-30 20:21 50.19038 7.44428 37335 ft 468 kts 106°
2026-04-30 20:21 50.16952 7.54040 37354 ft 467 kts 106°
2026-04-30 20:22 50.14856 7.63651 37344 ft 467 kts 106°
2026-04-30 20:22 50.12768 7.73184 37353 ft 467 kts 107°
2026-04-30 20:23 50.10660 7.82764 37362 ft 466 kts 106°
2026-04-30 20:23 50.08546 7.92324 37353 ft 466 kts 106°
2026-04-30 20:24 50.06485 8.01606 37356 ft 466 kts 106°
2026-04-30 20:24 50.04361 8.11130 37360 ft 465 kts 106°
2026-04-30 20:25 50.01159 8.25403 37378 ft 465 kts 106°
2026-04-30 20:26 49.97948 8.39629 37358 ft 465 kts 106°
2026-04-30 20:26 49.94567 8.53765 37345 ft 467 kts 111°
2026-04-30 20:27 49.88151 8.71349 37354 ft 469 kts 116°
2026-04-30 20:28 49.81577 8.88884 37356 ft 470 kts 117°
2026-04-30 20:30 49.73453 9.10537 37341 ft 470 kts 116°
2026-04-30 20:31 49.63555 9.36776 37351 ft 471 kts 116°
2026-04-30 20:32 49.57646 9.48931 37368 ft 479 kts 127°
2026-04-30 20:32 49.53212 9.56595 37359 ft 480 kts 127°
2026-04-30 20:33 49.46573 9.68199 36420 ft 485 kts 127°
2026-04-30 20:33 49.44355 9.72089 35703 ft 483 kts 127°
2026-04-30 20:34 49.39919 9.79850 33991 ft 484 kts 127°
2026-04-30 20:34 49.35451 9.87592 32116 ft 484 kts 127°
2026-04-30 20:35 49.33204 9.91437 31157 ft 484 kts 127°
2026-04-30 20:35 49.30983 9.95227 30447 ft 480 kts 127°
2026-04-30 20:35 49.26669 10.02584 29016 ft 467 kts 127°
2026-04-30 20:36 49.24510 10.06268 28382 ft 461 kts 127°
2026-04-30 20:36 49.22381 10.09902 27744 ft 456 kts 127°
2026-04-30 20:36 49.18189 10.17055 26512 ft 447 kts 127°
2026-04-30 20:37 49.16140 10.20602 25893 ft 443 kts 127°
2026-04-30 20:37 49.14134 10.24073 25335 ft 439 kts 127°
2026-04-30 20:37 49.12077 10.27509 24735 ft 437 kts 128°
2026-04-30 20:37 49.09955 10.30908 24137 ft 435 kts 129°
2026-04-30 20:38 49.07884 10.34191 23473 ft 433 kts 129°
2026-04-30 20:38 49.05809 10.37493 22828 ft 429 kts 129°
2026-04-30 20:38 49.03758 10.40780 22211 ft 425 kts 129°
2026-04-30 20:39 48.99710 10.47268 21060 ft 419 kts 129°
2026-04-30 20:39 48.97689 10.50444 20499 ft 417 kts 130°
2026-04-30 20:39 48.95672 10.53594 19920 ft 414 kts 130°
2026-04-30 20:40 48.91714 10.59854 18796 ft 410 kts 129°
2026-04-30 20:40 48.89749 10.63003 18141 ft 409 kts 129°
2026-04-30 20:40 48.88429 10.65119 17738 ft 407 kts 129°
2026-04-30 20:41 48.84547 10.71317 16561 ft 402 kts 130°
2026-04-30 20:41 48.82621 10.74380 15985 ft 399 kts 130°
2026-04-30 20:41 48.80725 10.77389 15437 ft 397 kts 130°
2026-04-30 20:41 48.78813 10.80390 14883 ft 395 kts 130°
2026-04-30 20:42 48.76902 10.83370 14309 ft 392 kts 131°
2026-04-30 20:42 48.75003 10.86325 13805 ft 388 kts 131°
2026-04-30 20:42 48.71278 10.92128 12720 ft 381 kts 131°
2026-04-30 20:43 48.69440 10.94987 12232 ft 377 kts 131°
2026-04-30 20:43 48.67612 10.97829 11686 ft 374 kts 131°
2026-04-30 20:43 48.65895 11.00498 11426 ft 364 kts 131°
2026-04-30 20:44 48.62522 11.05731 11249 ft 335 kts 131°
2026-04-30 20:44 48.60924 11.08208 11155 ft 322 kts 131°
2026-04-30 20:44 48.57929 11.12818 10998 ft 298 kts 133°
2026-04-30 20:45 48.54740 11.16278 10897 ft 272 kts 143°
2026-04-30 20:45 48.53155 11.17852 10528 ft 272 kts 142°
2026-04-30 20:45 48.51589 11.19433 10163 ft 270 kts 142°
2026-04-30 20:46 48.47527 11.25152 8981 ft 266 kts 131°
2026-04-30 20:46 48.46244 11.27117 8654 ft 263 kts 131°
2026-04-30 20:47 48.43802 11.30798 8038 ft 233 kts 132°
2026-04-30 20:47 48.42685 11.32468 7729 ft 222 kts 132°
2026-04-30 20:48 48.40508 11.35717 7190 ft 221 kts 132°
2026-04-30 20:48 48.39416 11.37338 6888 ft 216 kts 132°
2026-04-30 20:48 48.38376 11.38877 6600 ft 203 kts 132°
2026-04-30 20:48 48.37398 11.40319 6334 ft 189 kts 132°
2026-04-30 20:49 48.36497 11.41648 6061 ft 180 kts 131°
2026-04-30 20:49 48.35606 11.42963 5851 ft 180 kts 131°
2026-04-30 20:49 48.34745 11.44310 5625 ft 176 kts 121°
2026-04-30 20:50 48.34375 11.47760 5238 ft 173 kts 90°
2026-04-30 20:50 48.34358 11.49548 5083 ft 167 kts 91°
2026-04-30 20:50 48.34381 11.51317 4879 ft 170 kts 88°
2026-04-30 20:50 48.34471 11.53081 4664 ft 168 kts 86°
2026-04-30 20:51 48.34589 11.54799 4445 ft 167 kts 85°
2026-04-30 20:51 48.34846 11.58212 3998 ft 162 kts 85°
2026-04-30 20:51 48.34976 11.59898 3786 ft 161 kts 84°
2026-04-30 20:52 48.35105 11.61565 3577 ft 158 kts 85°
2026-04-30 20:52 48.35230 11.63196 3357 ft 157 kts 85°
2026-04-30 20:52 48.35482 11.66458 2912 ft 157 kts 84°
2026-04-30 20:53 48.35609 11.68107 2695 ft 161 kts 85°
2026-04-30 20:53 48.35736 11.69759 2409 ft 157 kts 84°
2026-04-30 20:53 48.35871 11.71370 2088 ft 153 kts 83°
2026-04-30 20:54 48.36113 11.74453 1803 ft 142 kts 83°
2026-04-30 20:54 48.36220 11.75908 1664 ft 140 kts 84°
2026-04-30 20:54 48.36330 11.77383 1525 ft 141 kts 84°
2026-04-30 20:55 48.36512 11.79801 1460 ft 74 kts 83°
2026-04-30 20:55 48.36559 11.80405 1468 ft 53 kts 83°
2026-04-30 20:55 48.36518 11.80851 1464 ft 34 kts 112°
2026-04-30 20:56 48.36301 11.81279 1463 ft 22 kts 172°
2026-04-30 20:56 48.36232 11.81153 1463 ft 17 kts 260°
2026-04-30 20:56 48.36188 11.80574 1467 ft 40 kts 263°
2026-04-30 20:57 48.36155 11.80164 1470 ft 38 kts 263°
2026-04-30 20:57 48.36126 11.79776 1466 ft 36 kts 263°
2026-04-30 20:57 48.36100 11.79434 1467 ft 23 kts 263°
2026-04-30 20:58 48.35941 11.79348 1470 ft 14 kts 164°
2026-04-30 20:58 48.35860 11.79364 1466 ft 11 kts 208°
2026-04-30 20:58 48.35840 11.79270 1466 ft 10 kts 264°
2026-04-30 20:58 48.35838 11.79236 1465 ft 0 kts 264°